Find Starlink 32845

NORAD ID: 62815 Int'l Des: 2025-018 Owner: SPXS Country: US Constellation: starlink operational
LEOCIRCULAR

現在のビュー

3D地球を読み込み中...

About Starlink 32845

Starlink 32845 (NORAD 62815) is a starlink constellation satellite (v2 mini) launched Jan 24, 2025 by SPXS of US. It operates in LEO, CIRCULAR orbit with a mass of 730.00 kg.

Starlink 32845について

説明を読み込み中...

次回通過

Passes for default location (London). Set your location on the main map for personalized predictions.

高度履歴

Loading altitude history...

軌道要素

1 62815U 25018K 26170.33330237 .00010589 00000-0 36879-3 0 9997
2 62815 53.1603 197.2487 0001367 73.3238 286.7913 15.30231179 78736
Epoch: Jun 19, 2026 • Age: 7 hours

現在のステータス

高度 493.0 km
速度 7.62 km/s
衛星直下点 -49.26°S, 62.58°W
打ち上げ日 Jan 24, 2025
運用期間 1.3 years
タイプ internet

技術仕様

分類 Payload
質量 730.00 kg
乾燥質量 700.00 kg
総質量 730.00 kg
長さ 0.30 m
直径 4.10 m
スパン 29.00 m
形状 Box + pan
製造者 SPXS
バスタイプ Starlink V2M
フェーズステータス In Orbit
所有者/国 SPXS/US

Most Searched